[ hide orbit diagram ]
For accurate long-term ephemerides, please instead use our Horizons system.This orbit viewer was implemented using two-body methods, and hence should not be used for determining accurate long-term trajectories (over several years or decades) or planetary encounter circumstances.
Orbital Elements at Epoch 2459000.5 (2020-May-31.0) TDB
Reference: JPL 51 (heliocentric ecliptic J2000)
Element | Value | Uncertainty (1-sigma) | Units |
e | .04405552253374938 | 3.3154e-08 | |
a | 2.645022810241713 | 7.6219e-09 | au |
q | 2.528494948222828 | 8.913e-08 | au |
i | 5.842100465821509 | 4.1455e-06 | deg |
node | 352.7945420165939 | 3.744e-05 | deg |
peri | 284.9582533216605 | 6.2278e-05 | deg |
M | 321.569238873933 | 5.011e-05 | deg |
tp | 2459168.233204605719 (2020-Nov-14.73320461) | 0.00021867 | TDB |
period | 1571.240118299434 4.30 | 6.7915e-06 1.859e-08 | d yr |
n | .2291183860488689 | 9.9034e-10 | deg/d |
Q | 2.761550672260598 | 7.9577e-09 | au |
|
| | Orbit Determination Parameters
Additional Information
|
[ show covariance matrix ]
Physical Parameter Table
Parameter |
Symbol |
Value |
Units |
Sigma |
Reference |
Notes |
absolute magnitude |
H |
8.6 |
|
n/a |
MPO473763 |
IRAS observations used: 6 |
diameter |
diameter |
58.236 |
km |
0.822 |
urn:nasa:pds:neowise_diameters_albedos::2.0[mainbelt] (http://adsabs.harvard.edu/abs/2014ApJ...791..121M) |
|
rotation period |
rot_per |
9.401 |
h |
n/a |
LCDB (Rev. 2020-October); Warner et al., 2009 |
Published Reference List: [Warner, B.D. (2006) Minor Planet Bull. 33, 58-62.] [Shepard, M.K.; Kressler, K.M.; Clark, B.E.; Ockert-Bell, M.E.; et al. (2008) Icarus 195, 220-225.] [Pilcher, F. (2011) Minor Planet Bull. 38, 183-185.] [Franco, L.; Marchini, A.; Battista Casalnuovo, G.; Chinaglia, B.; et al. (2019) Minor Planet Bull. 46, 350-352.] |
geometric albedo |
albedo |
0.166 |
|
0.019 |
urn:nasa:pds:neowise_diameters_albedos::2.0[mainbelt] (http://adsabs.harvard.edu/abs/2012ApJ...759L...8M) |
|
B-V |
BV |
0.748 |
|
0.017 |
EAR-A-5-DDR-UBV-MEAN-VALUES-V1.2 |
#obs=4; phase (min.=2.93, mean=6.54, max.=11.77) deg. |
U-B |
UB |
0.201 |
|
0.044 |
EAR-A-5-DDR-UBV-MEAN-VALUES-V1.2 |
#obs=4; phase (min.=2.93, mean=6.54, max.=11.77) deg. |
Tholen spectral type |
spec_T |
M |
|
n/a |
EAR-A-5-DDR-TAXONOMY-V4.0 |
used 2 color indices; used ground-based radiometric albedo |
|
224 Oceana (A882 FA) Discovered 1882-Mar-30 by Palisa, J. at Vienna |
Reference: DISCOVERY.DB | Last Updated: 2003-08-29 |
|
[ show close-approach data ]
Alternate Designations
A882 FA = 1933 HO = A899 EA |
|
|